date,City,No. Stations,Air Quality,Index Value,Prominent Pollutant
2019-01-07,Yamunanagar,1.0,Poor,296,PM2.5
2019-01-08,Yamunanagar,1.0,Poor,231,PM2.5
2019-01-09,Yamunanagar,1.0,Poor,258,PM2.5
2019-01-10,Yamunanagar,1.0,Poor,216,PM2.5
2019-01-11,Yamunanagar,1.0,Very Poor,349,PM2.5
2019-01-12,Yamunanagar,1.0,Very Poor,341,PM2.5
2019-01-13,Yamunanagar,1.0,Very Poor,304,PM2.5
2019-01-14,Yamunanagar,1.0,Moderate,127,PM2.5
2019-01-15,Yamunanagar,1.0,Moderate,156,PM2.5
2019-01-16,Yamunanagar,1.0,Very Poor,302,PM2.5
2019-01-17,Yamunanagar,1.0,Very Poor,333,PM2.5
2019-01-18,Yamunanagar,1.0,Poor,299,PM2.5
2019-01-19,Yamunanagar,1.0,Poor,220,PM2.5
2019-01-22,Yamunanagar,1.0,Moderate,140,PM2.5
2019-01-23,Yamunanagar,1.0,Satisfactory,73,PM10
2019-01-24,Yamunanagar,1.0,Moderate,153,PM2.5
2019-01-25,Yamunanagar,1.0,Satisfactory,86,PM10
2019-01-26,Yamunanagar,1.0,Moderate,113,PM2.5
2019-01-27,Yamunanagar,1.0,Satisfactory,91,PM10
2019-01-28,Yamunanagar,1.0,Satisfactory,93,PM10
2019-01-29,Yamunanagar,1.0,Moderate,159,PM2.5
2019-01-30,Yamunanagar,1.0,Moderate,166,PM2.5
2019-01-31,Yamunanagar,1.0,Poor,294,PM2.5
2019-02-01,Yamunanagar,1.0,Moderate,195,PM2.5
2019-02-02,Yamunanagar,1.0,Moderate,124,PM2.5
2019-02-03,Yamunanagar,1.0,Moderate,101,PM2.5
2019-02-04,Yamunanagar,1.0,Poor,232,PM2.5
2019-02-05,Yamunanagar,1.0,Poor,251,PM2.5
2019-02-06,Yamunanagar,1.0,Poor,280,PM2.5
2019-02-07,Yamunanagar,1.0,Moderate,131,PM2.5
2019-02-09,Yamunanagar,1.0,Satisfactory,80,PM10
2019-02-10,Yamunanagar,1.0,Moderate,120,PM2.5
2019-02-11,Yamunanagar,1.0,Moderate,174,PM2.5
2019-02-12,Yamunanagar,1.0,Moderate,178,PM2.5
2019-02-13,Yamunanagar,1.0,Poor,244,PM2.5
2019-02-14,Yamunanagar,1.0,Poor,261,PM2.5
2019-02-15,Yamunanagar,1.0,Moderate,103,PM2.5
2019-02-16,Yamunanagar,1.0,Satisfactory,84,PM10
2019-02-17,Yamunanagar,1.0,Satisfactory,80,PM10
2019-02-18,Yamunanagar,1.0,Moderate,146,PM2.5
2019-02-19,Yamunanagar,1.0,Satisfactory,67,OZONE
2019-02-20,Yamunanagar,1.0,Moderate,147,PM10
2019-02-21,Yamunanagar,1.0,Moderate,107,PM10
2019-02-22,Yamunanagar,1.0,Moderate,124,PM10
2019-02-23,Yamunanagar,1.0,Satisfactory,79,CO
2019-02-24,Yamunanagar,1.0,Satisfactory,100,PM10
2019-02-25,Yamunanagar,1.0,Moderate,152,PM2.5
2019-02-26,Yamunanagar,1.0,Moderate,169,PM2.5
2019-02-28,Yamunanagar,1.0,Satisfactory,73,PM10
2019-03-01,Yamunanagar,1.0,Satisfactory,94,PM10
2019-03-03,Yamunanagar,1.0,Satisfactory,87,PM2.5
2019-03-04,Yamunanagar,1.0,Satisfactory,76,PM10
2019-03-05,Yamunanagar,1.0,Satisfactory,71,PM10
2019-03-06,Yamunanagar,1.0,Satisfactory,97,PM10
2019-03-07,Yamunanagar,1.0,Moderate,167,OZONE
2019-03-08,Yamunanagar,1.0,Moderate,134,PM10
2019-03-09,Yamunanagar,1.0,Moderate,105,PM10
2019-03-10,Yamunanagar,1.0,Moderate,168,OZONE
2019-03-11,Yamunanagar,1.0,Moderate,137,PM10
2019-03-12,Yamunanagar,1.0,Satisfactory,99,PM10
2019-03-13,Yamunanagar,1.0,Moderate,191,PM10
2019-03-15,Yamunanagar,1.0,Satisfactory,98,PM2.5
2019-03-16,Yamunanagar,1.0,Satisfactory,93,OZONE
2019-03-17,Yamunanagar,1.0,Moderate,155,OZONE
2019-03-18,Yamunanagar,1.0,Moderate,118,PM10
2019-03-19,Yamunanagar,1.0,Moderate,122,PM10
2019-03-20,Yamunanagar,1.0,Moderate,178,PM10
2019-03-21,Yamunanagar,1.0,Moderate,109,PM10
2019-03-22,Yamunanagar,1.0,Satisfactory,92,PM10
2019-03-23,Yamunanagar,1.0,Moderate,111,PM10
2019-03-24,Yamunanagar,1.0,Moderate,105,PM10
2019-03-25,Yamunanagar,1.0,Moderate,122,PM10
2019-03-26,Yamunanagar,1.0,Moderate,121,PM10
2019-03-27,Yamunanagar,1.0,Moderate,136,PM10
2019-03-28,Yamunanagar,1.0,Moderate,183,OZONE
2019-03-29,Yamunanagar,1.0,Moderate,177,PM2.5
2019-03-30,Yamunanagar,1.0,Poor,207,PM2.5
2019-03-31,Yamunanagar,1.0,Moderate,134,PM10
2019-04-01,Yamunanagar,1.0,Moderate,167,OZONE
2019-04-02,Yamunanagar,1.0,Moderate,161,PM10
2019-04-03,Yamunanagar,1.0,Moderate,158,OZONE
2019-04-04,Yamunanagar,1.0,Moderate,196,PM2.5
2019-04-05,Yamunanagar,1.0,Moderate,196,PM2.5
2019-04-06,Yamunanagar,1.0,Poor,236,PM2.5
2019-04-07,Yamunanagar,1.0,Poor,225,PM2.5
2019-04-08,Yamunanagar,1.0,Moderate,189,PM10
2019-04-09,Yamunanagar,1.0,Moderate,176,PM2.5
2019-04-10,Yamunanagar,1.0,Moderate,173,OZONE
2019-04-11,Yamunanagar,1.0,Moderate,183,PM2.5
2019-04-12,Yamunanagar,1.0,Moderate,166,PM10
2019-04-13,Yamunanagar,1.0,Moderate,186,PM10
2019-04-14,Yamunanagar,1.0,Moderate,136,PM10
2019-04-15,Yamunanagar,1.0,Moderate,141,PM10
2019-04-16,Yamunanagar,1.0,Moderate,176,PM10
2019-04-17,Yamunanagar,1.0,Moderate,127,PM10
2019-04-18,Yamunanagar,1.0,Satisfactory,61,OZONE
2019-04-19,Yamunanagar,1.0,Moderate,113,PM2.5
2019-04-20,Yamunanagar,1.0,Moderate,125,PM2.5
2019-04-21,Yamunanagar,1.0,Poor,230,PM2.5
2019-04-22,Yamunanagar,1.0,Moderate,129,PM2.5
2019-04-23,Yamunanagar,1.0,Moderate,173,PM2.5
2019-04-24,Yamunanagar,1.0,Poor,257,PM2.5
2019-04-25,Yamunanagar,1.0,Poor,225,PM2.5
2019-04-26,Yamunanagar,1.0,Poor,265,PM2.5
2019-04-27,Yamunanagar,1.0,Moderate,174,PM10
2019-04-28,Yamunanagar,1.0,Poor,202,PM10
2019-04-29,Yamunanagar,1.0,Moderate,163,PM10
2019-04-30,Yamunanagar,1.0,Moderate,182,PM2.5
2019-05-01,Yamunanagar,1.0,Moderate,139,PM2.5
2019-05-02,Yamunanagar,1.0,Moderate,120,PM10
2019-05-03,Yamunanagar,1.0,Moderate,106,PM2.5
2019-05-04,Yamunanagar,1.0,Moderate,135,PM2.5
2019-05-05,Yamunanagar,1.0,Moderate,157,PM2.5
2019-05-06,Yamunanagar,1.0,Poor,219,PM2.5
2019-05-07,Yamunanagar,1.0,Moderate,149,PM2.5
2019-05-08,Yamunanagar,1.0,Poor,226,PM2.5
2019-05-09,Yamunanagar,1.0,Poor,201,PM2.5
2019-05-10,Yamunanagar,1.0,Poor,247,PM2.5
2019-05-11,Yamunanagar,1.0,Moderate,145,PM2.5
2019-05-12,Yamunanagar,1.0,Poor,202,PM2.5
2019-05-13,Yamunanagar,1.0,Moderate,121,PM2.5
2019-05-14,Yamunanagar,1.0,Moderate,175,PM2.5
2019-05-15,Yamunanagar,1.0,Poor,213,PM2.5
2019-05-16,Yamunanagar,1.0,Poor,293,PM2.5
2019-05-17,Yamunanagar,1.0,Very Poor,303,PM2.5
2019-05-18,Yamunanagar,1.0,Moderate,178,PM2.5
2019-05-19,Yamunanagar,1.0,Moderate,156,PM2.5
2019-05-20,Yamunanagar,1.0,Moderate,176,PM2.5
2019-05-21,Yamunanagar,1.0,Poor,237,PM2.5
2019-05-22,Yamunanagar,1.0,Poor,201,PM2.5
2019-05-23,Yamunanagar,1.0,Poor,238,PM2.5
2019-05-24,Yamunanagar,1.0,Moderate,162,PM2.5
2019-05-25,Yamunanagar,1.0,Moderate,116,PM10
2019-05-26,Yamunanagar,1.0,Moderate,122,PM10
2019-05-27,Yamunanagar,1.0,Moderate,146,PM2.5
2019-05-28,Yamunanagar,1.0,Moderate,121,PM10
2019-05-29,Yamunanagar,1.0,Moderate,123,PM10
2019-05-30,Yamunanagar,1.0,Moderate,188,PM2.5
2019-05-31,Yamunanagar,1.0,Poor,214,PM2.5
2019-06-01,Yamunanagar,1.0,Poor,236,PM2.5
2019-06-02,Yamunanagar,1.0,Moderate,195,PM2.5
2019-06-03,Yamunanagar,1.0,Moderate,171,PM10
2019-06-04,Yamunanagar,1.0,Moderate,158,PM10
2019-06-05,Yamunanagar,1.0,Poor,244,PM2.5
2019-06-06,Yamunanagar,1.0,Moderate,198,PM2.5
2019-06-07,Yamunanagar,1.0,Poor,209,OZONE
2019-06-08,Yamunanagar,1.0,Poor,225,OZONE
2019-06-09,Yamunanagar,1.0,Moderate,190,OZONE
2019-06-10,Yamunanagar,1.0,Moderate,158,PM2.5
2019-06-12,Yamunanagar,1.0,Moderate,154,PM10
2019-06-13,Yamunanagar,1.0,Moderate,161,PM2.5
2019-06-14,Yamunanagar,1.0,Poor,267,PM2.5
2019-06-15,Yamunanagar,1.0,Moderate,161,PM10
2019-06-16,Yamunanagar,1.0,Moderate,186,PM10
2019-06-17,Yamunanagar,1.0,Moderate,138,PM10
2019-06-18,Yamunanagar,1.0,Moderate,117,PM10
2019-06-19,Yamunanagar,1.0,Moderate,150,PM2.5
2019-06-20,Yamunanagar,1.0,Poor,218,PM2.5
2019-06-21,Yamunanagar,1.0,Moderate,180,PM2.5
2019-06-22,Yamunanagar,1.0,Moderate,172,PM2.5
2019-06-23,Yamunanagar,1.0,Moderate,108,PM10
2019-06-24,Yamunanagar,1.0,Moderate,104,PM10
2019-06-25,Yamunanagar,1.0,Moderate,105,PM10
2019-06-26,Yamunanagar,1.0,Moderate,106,PM10
2019-06-27,Yamunanagar,1.0,Moderate,187,PM10
2019-06-28,Yamunanagar,1.0,Moderate,137,PM10
2019-06-29,Yamunanagar,1.0,Moderate,187,PM2.5
2019-06-30,Yamunanagar,1.0,Poor,244,PM2.5
2019-07-01,Yamunanagar,1.0,Moderate,152,PM2.5
2019-07-02,Yamunanagar,1.0,Moderate,168,OZONE
2019-07-03,Yamunanagar,1.0,Moderate,145,PM2.5
2019-07-04,Yamunanagar,1.0,Moderate,148,PM2.5
2019-07-06,Yamunanagar,1.0,Moderate,135,PM2.5
2019-07-07,Yamunanagar,1.0,Moderate,153,OZONE
2019-07-08,Yamunanagar,1.0,Moderate,179,OZONE
2019-07-09,Yamunanagar,1.0,Satisfactory,99,PM2.5
2019-07-10,Yamunanagar,1.0,Moderate,186,OZONE
2019-07-11,Yamunanagar,1.0,Moderate,177,PM2.5
2019-07-12,Yamunanagar,1.0,Moderate,167,PM2.5
2019-07-13,Yamunanagar,1.0,Poor,238,PM2.5
2019-07-14,Yamunanagar,1.0,Poor,249,PM2.5
2019-07-15,Yamunanagar,1.0,Satisfactory,86,OZONE
2019-07-16,Yamunanagar,1.0,Moderate,146,PM2.5
2019-07-17,Yamunanagar,1.0,Satisfactory,89,PM10
2019-07-18,Yamunanagar,1.0,Moderate,125,PM2.5
2019-07-19,Yamunanagar,1.0,Moderate,162,PM2.5
2019-07-20,Yamunanagar,1.0,Moderate,171,PM2.5
2019-07-21,Yamunanagar,1.0,Moderate,185,PM2.5
2019-07-22,Yamunanagar,1.0,Moderate,138,PM2.5
2019-07-23,Yamunanagar,1.0,Moderate,150,OZONE
2019-07-24,Yamunanagar,1.0,Moderate,135,PM2.5
2019-07-25,Yamunanagar,1.0,Satisfactory,84,PM10
2019-07-26,Yamunanagar,1.0,Satisfactory,55,OZONE
2019-07-27,Yamunanagar,1.0,Satisfactory,52,OZONE
2019-07-28,Yamunanagar,1.0,Satisfactory,53,OZONE
2019-07-29,Yamunanagar,1.0,Satisfactory,63,OZONE
2019-07-30,Yamunanagar,1.0,Satisfactory,90,PM10
2019-07-31,Yamunanagar,1.0,Satisfactory,70,PM10
2019-08-01,Yamunanagar,1.0,Satisfactory,90,PM10
2019-08-02,Yamunanagar,1.0,Satisfactory,80,PM10
2019-08-03,Yamunanagar,1.0,Satisfactory,73,PM10
2019-08-04,Yamunanagar,1.0,Satisfactory,91,PM10
2019-08-05,Yamunanagar,1.0,Satisfactory,77,OZONE
2019-08-06,Yamunanagar,1.0,Satisfactory,67,PM10
2019-08-07,Yamunanagar,1.0,Satisfactory,100,PM10
2019-08-08,Yamunanagar,1.0,Satisfactory,93,OZONE
2019-08-09,Yamunanagar,1.0,Satisfactory,72,PM10
2019-08-10,Yamunanagar,1.0,Satisfactory,80,PM10
2019-08-11,Yamunanagar,1.0,Satisfactory,89,PM10
2019-08-12,Yamunanagar,1.0,Satisfactory,86,PM10
2019-08-13,Yamunanagar,1.0,Moderate,104,PM2.5
2019-08-14,Yamunanagar,1.0,Satisfactory,59,PM10
2019-08-15,Yamunanagar,1.0,Satisfactory,78,PM10
2019-08-16,Yamunanagar,1.0,Satisfactory,60,OZONE
2019-08-17,Yamunanagar,1.0,Satisfactory,54,PM10
2019-08-18,Yamunanagar,1.0,Good,31,CO
2019-08-19,Yamunanagar,1.0,Good,32,OZONE
2019-08-20,Yamunanagar,1.0,Satisfactory,81,PM10
2019-08-21,Yamunanagar,1.0,Satisfactory,59,PM10
2019-08-22,Yamunanagar,1.0,Moderate,107,PM10
2019-08-23,Yamunanagar,1.0,Moderate,144,PM2.5
2019-08-24,Yamunanagar,1.0,Moderate,146,PM2.5
2019-08-25,Yamunanagar,1.0,Satisfactory,94,PM10
2019-08-26,Yamunanagar,1.0,Satisfactory,59,PM10
2019-08-27,Yamunanagar,1.0,Satisfactory,98,PM10
2019-08-28,Yamunanagar,1.0,Satisfactory,97,PM10
2019-08-29,Yamunanagar,1.0,Moderate,119,PM2.5
2019-08-30,Yamunanagar,1.0,Moderate,176,PM2.5
2019-08-31,Yamunanagar,1.0,Moderate,129,PM2.5
2019-09-01,Yamunanagar,1.0,Moderate,102,PM2.5
2019-09-02,Yamunanagar,1.0,Satisfactory,87,PM10
2019-09-03,Yamunanagar,1.0,Moderate,140,PM2.5
2019-09-04,Yamunanagar,1.0,Moderate,108,PM10
2019-09-05,Yamunanagar,1.0,Satisfactory,97,PM10
2019-09-06,Yamunanagar,1.0,Satisfactory,92,PM10
2019-09-07,Yamunanagar,1.0,Satisfactory,73,OZONE
2019-09-08,Yamunanagar,1.0,Satisfactory,75,PM10
2019-09-09,Yamunanagar,1.0,Moderate,111,OZONE
2019-09-10,Yamunanagar,1.0,Moderate,165,PM2.5
2019-09-11,Yamunanagar,1.0,Moderate,199,PM2.5
2019-09-14,Yamunanagar,1.0,Satisfactory,88,PM10
2019-09-15,Yamunanagar,1.0,Satisfactory,74,PM10
2019-09-16,Yamunanagar,1.0,Moderate,161,OZONE
2019-09-17,Yamunanagar,1.0,Moderate,162,OZONE
2019-09-18,Yamunanagar,1.0,Moderate,169,OZONE
2019-09-19,Yamunanagar,1.0,Satisfactory,81,PM10
2019-09-20,Yamunanagar,1.0,Moderate,105,PM10
2019-09-21,Yamunanagar,1.0,Moderate,108,OZONE
2019-09-22,Yamunanagar,1.0,Moderate,107,PM2.5
2019-09-23,Yamunanagar,1.0,Moderate,163,OZONE
2019-09-24,Yamunanagar,1.0,Moderate,152,OZONE
2019-09-25,Yamunanagar,1.0,Moderate,111,PM2.5
2019-09-26,Yamunanagar,1.0,Moderate,109,PM2.5
2019-09-27,Yamunanagar,1.0,Satisfactory,82,PM10
2019-09-28,Yamunanagar,1.0,Satisfactory,71,PM10
2019-09-29,Yamunanagar,1.0,Good,48,PM10
2019-09-30,Yamunanagar,1.0,Satisfactory,54,PM10
2019-10-01,Yamunanagar,1.0,Satisfactory,83,PM10
2019-10-02,Yamunanagar,1.0,Moderate,158,OZONE
2019-10-03,Yamunanagar,1.0,Poor,204,OZONE
2019-10-04,Yamunanagar,1.0,Moderate,109,PM10
2019-10-05,Yamunanagar,1.0,Moderate,178,OZONE
2019-10-06,Yamunanagar,1.0,Moderate,195,OZONE
2019-10-07,Yamunanagar,1.0,Moderate,178,OZONE
2019-10-08,Yamunanagar,1.0,Poor,265,OZONE
2019-10-09,Yamunanagar,1.0,Poor,244,PM2.5
2019-10-10,Yamunanagar,1.0,Poor,284,PM2.5
2019-10-11,Yamunanagar,1.0,Poor,298,PM2.5
2019-10-12,Yamunanagar,1.0,Poor,291,PM2.5
2019-10-13,Yamunanagar,1.0,Poor,292,PM2.5
2019-10-14,Yamunanagar,1.0,Poor,285,PM2.5
2019-10-15,Yamunanagar,1.0,Very Poor,304,PM2.5
2019-10-16,Yamunanagar,1.0,Poor,274,PM2.5
2019-10-17,Yamunanagar,1.0,Poor,240,PM2.5
2019-10-18,Yamunanagar,1.0,Poor,274,OZONE
2019-10-19,Yamunanagar,1.0,Poor,260,PM2.5
2019-10-20,Yamunanagar,1.0,Very Poor,305,PM2.5
2019-10-21,Yamunanagar,1.0,Poor,277,PM2.5
2019-10-22,Yamunanagar,1.0,Poor,264,OZONE
2019-10-23,Yamunanagar,1.0,Very Poor,303,PM2.5
2019-10-24,Yamunanagar,1.0,Poor,275,PM2.5
2019-10-25,Yamunanagar,1.0,Very Poor,301,PM2.5
2019-10-26,Yamunanagar,1.0,Very Poor,327,PM2.5
2019-10-27,Yamunanagar,1.0,Very Poor,373,PM2.5
2019-10-28,Yamunanagar,1.0,Very Poor,342,PM2.5
2019-10-29,Yamunanagar,1.0,Very Poor,306,PM2.5
2019-10-30,Yamunanagar,1.0,Very Poor,342,PM2.5
2019-10-31,Yamunanagar,1.0,Very Poor,350,PM2.5
2019-11-01,Yamunanagar,1.0,Very Poor,322,PM2.5
2019-11-02,Yamunanagar,1.0,Very Poor,345,PM2.5
2019-11-03,Yamunanagar,1.0,Very Poor,396,PM2.5
2019-11-04,Yamunanagar,1.0,Very Poor,337,PM2.5
2019-11-05,Yamunanagar,1.0,Poor,228,OZONE
2019-11-06,Yamunanagar,1.0,Poor,274,PM2.5
2019-11-07,Yamunanagar,1.0,Poor,235,PM2.5
2019-11-08,Yamunanagar,1.0,Poor,233,OZONE
2019-11-09,Yamunanagar,1.0,Moderate,190,OZONE
2019-11-10,Yamunanagar,1.0,Poor,270,OZONE
2019-11-11,Yamunanagar,1.0,Poor,287,PM2.5
2019-11-12,Yamunanagar,1.0,Very Poor,326,PM2.5
2019-11-13,Yamunanagar,1.0,Poor,280,PM2.5
2019-11-14,Yamunanagar,1.0,Poor,216,PM2.5
2019-11-15,Yamunanagar,1.0,Very Poor,336,PM2.5
2019-11-16,Yamunanagar,1.0,Poor,241,PM2.5
2019-11-17,Yamunanagar,1.0,Satisfactory,100,PM10
2019-11-18,Yamunanagar,1.0,Poor,243,OZONE
2019-11-19,Yamunanagar,1.0,Poor,297,PM2.5
2019-11-20,Yamunanagar,1.0,Very Poor,340,PM2.5
2019-11-21,Yamunanagar,1.0,Poor,300,PM2.5
2019-11-22,Yamunanagar,1.0,Very Poor,311,PM2.5
2019-11-23,Yamunanagar,1.0,Poor,242,PM2.5
2019-11-24,Yamunanagar,1.0,Moderate,134,PM2.5
2019-11-25,Yamunanagar,1.0,Moderate,153,PM2.5
2019-11-27,Yamunanagar,1.0,Moderate,107,PM2.5
2019-11-28,Yamunanagar,1.0,Moderate,103,PM2.5
2019-11-29,Yamunanagar,1.0,Moderate,171,PM2.5
2019-11-30,Yamunanagar,1.0,Moderate,115,PM2.5
2019-12-01,Yamunanagar,1.0,Moderate,187,PM2.5
2019-12-02,Yamunanagar,1.0,Poor,246,PM2.5
2019-12-03,Yamunanagar,1.0,Poor,289,PM2.5
2019-12-04,Yamunanagar,1.0,Very Poor,332,PM2.5
2019-12-05,Yamunanagar,1.0,Very Poor,325,PM2.5
2019-12-06,Yamunanagar,1.0,Poor,272,PM2.5
2019-12-07,Yamunanagar,1.0,Poor,254,PM2.5
2019-12-08,Yamunanagar,1.0,Poor,252,PM2.5
2019-12-09,Yamunanagar,1.0,Poor,260,PM2.5
2019-12-10,Yamunanagar,1.0,Very Poor,312,PM2.5
2019-12-11,Yamunanagar,1.0,Very Poor,339,PM2.5
2019-12-12,Yamunanagar,1.0,Very Poor,337,PM2.5
2019-12-13,Yamunanagar,1.0,Moderate,142,PM2.5
2019-12-14,Yamunanagar,1.0,Satisfactory,51,PM2.5
2019-12-16,Yamunanagar,1.0,Moderate,119,PM2.5
2019-12-17,Yamunanagar,1.0,Poor,203,PM2.5
2019-12-18,Yamunanagar,1.0,Poor,203,PM2.5
2019-12-19,Yamunanagar,1.0,Poor,283,PM2.5
2019-12-20,Yamunanagar,1.0,Poor,247,PM2.5
2019-12-21,Yamunanagar,1.0,Poor,255,PM2.5
2019-12-22,Yamunanagar,1.0,Poor,269,PM2.5
2019-12-23,Yamunanagar,1.0,Moderate,176,PM2.5
2019-12-24,Yamunanagar,1.0,Poor,216,PM2.5
2019-12-25,Yamunanagar,1.0,Moderate,141,PM2.5
2019-12-26,Yamunanagar,1.0,Moderate,149,PM2.5
2019-12-27,Yamunanagar,1.0,Poor,244,PM2.5
2019-12-28,Yamunanagar,1.0,Poor,237,PM2.5
2019-12-29,Yamunanagar,1.0,Poor,240,PM2.5
2019-12-30,Yamunanagar,1.0,Moderate,182,PM2.5
2019-12-31,Yamunanagar,1.0,Poor,296,PM2.5
2020-01-01,Yamunanagar,1.0,Very Poor,341,PM2.5
2020-01-02,Yamunanagar,1.0,Poor,290,PM2.5
2020-01-03,Yamunanagar,1.0,Poor,226,PM2.5
2020-01-04,Yamunanagar,1.0,Poor,253,PM2.5
2020-01-05,Yamunanagar,1.0,Poor,282,PM2.5
2020-01-06,Yamunanagar,1.0,Moderate,118,PM2.5
2020-01-07,Yamunanagar,1.0,Satisfactory,100,PM2.5
2020-01-08,Yamunanagar,1.0,Moderate,115,PM2.5
2020-01-09,Yamunanagar,1.0,Satisfactory,74,PM2.5
2020-01-10,Yamunanagar,1.0,Moderate,131,PM2.5
2020-01-11,Yamunanagar,1.0,Moderate,179,PM2.5
2020-01-13,Yamunanagar,1.0,Poor,297,PM2.5
2020-01-14,Yamunanagar,1.0,Poor,210,PM2.5
2020-01-15,Yamunanagar,1.0,Moderate,141,PM2.5
2020-01-16,Yamunanagar,1.0,Poor,229,PM2.5
2020-01-17,Yamunanagar,1.0,Poor,258,PM2.5
2020-01-18,Yamunanagar,1.0,Moderate,189,PM2.5
2020-01-19,Yamunanagar,1.0,Moderate,117,PM2.5
2020-01-20,Yamunanagar,1.0,Poor,201,PM2.5
2020-01-21,Yamunanagar,1.0,Very Poor,337,PM2.5
2020-01-22,Yamunanagar,1.0,Moderate,187,PM2.5
2020-01-23,Yamunanagar,1.0,Satisfactory,93,PM10
2020-01-24,Yamunanagar,1.0,Satisfactory,98,PM10
2020-01-25,Yamunanagar,1.0,Moderate,169,PM2.5
2020-01-26,Yamunanagar,1.0,Poor,269,PM2.5
2020-01-27,Yamunanagar,1.0,Very Poor,335,PM2.5
2020-01-28,Yamunanagar,1.0,Very Poor,327,PM2.5
2020-01-30,Yamunanagar,1.0,Moderate,106,PM2.5
2020-01-31,Yamunanagar,1.0,Satisfactory,87,PM2.5
2020-02-01,Yamunanagar,1.0,Moderate,169,PM2.5
2020-02-02,Yamunanagar,1.0,Moderate,144,PM2.5
2020-02-03,Yamunanagar,1.0,Moderate,171,PM2.5
2020-02-04,Yamunanagar,1.0,Poor,287,PM2.5
2020-02-05,Yamunanagar,1.0,Moderate,193,PM2.5
2020-02-06,Yamunanagar,1.0,Moderate,163,PM2.5
2020-02-07,Yamunanagar,1.0,Poor,220,PM2.5
2020-02-08,Yamunanagar,1.0,Moderate,181,PM2.5
2020-02-09,Yamunanagar,1.0,Poor,213,PM2.5
2020-02-10,Yamunanagar,1.0,Poor,213,PM2.5
2020-02-11,Yamunanagar,1.0,Poor,260,PM2.5
2020-02-12,Yamunanagar,1.0,Poor,222,PM2.5
2020-02-13,Yamunanagar,1.0,Moderate,121,PM2.5
2020-02-14,Yamunanagar,1.0,Moderate,107,PM10
2020-02-15,Yamunanagar,1.0,Moderate,117,PM10
2020-02-16,Yamunanagar,1.0,Moderate,168,PM2.5
2020-02-17,Yamunanagar,1.0,Poor,242,PM2.5
2020-02-18,Yamunanagar,1.0,Moderate,149,PM2.5
2020-02-19,Yamunanagar,1.0,Poor,214,PM2.5
2020-02-20,Yamunanagar,1.0,Moderate,197,PM2.5
2020-02-21,Yamunanagar,1.0,Satisfactory,100,PM2.5
2020-02-22,Yamunanagar,1.0,Moderate,122,PM2.5
2020-02-23,Yamunanagar,1.0,Moderate,156,PM2.5
2020-02-24,Yamunanagar,1.0,Satisfactory,95,PM2.5
2020-02-25,Yamunanagar,1.0,Moderate,127,PM2.5
2020-02-26,Yamunanagar,1.0,Moderate,114,PM10
2020-02-29,Yamunanagar,1.0,Moderate,166,PM2.5
2020-03-01,Yamunanagar,1.0,Satisfactory,84,PM10
2020-03-02,Yamunanagar,1.0,Moderate,120,PM2.5
2020-03-03,Yamunanagar,1.0,Moderate,153,PM2.5
2020-03-04,Yamunanagar,1.0,Moderate,193,PM2.5
2020-03-05,Yamunanagar,1.0,Moderate,133,PM10
2020-03-07,Yamunanagar,1.0,Satisfactory,59,PM10
2020-03-08,Yamunanagar,1.0,Moderate,107,PM2.5
2020-03-09,Yamunanagar,1.0,Satisfactory,68,PM10
2020-03-11,Yamunanagar,1.0,Moderate,135,PM10
2020-03-12,Yamunanagar,1.0,Satisfactory,61,PM10
2020-03-13,Yamunanagar,1.0,Moderate,101,PM10
2020-03-14,Yamunanagar,1.0,Satisfactory,68,PM10
2020-03-15,Yamunanagar,1.0,Satisfactory,67,PM10
2020-03-16,Yamunanagar,1.0,Satisfactory,80,PM10
2020-03-17,Yamunanagar,1.0,Moderate,101,PM10
2020-03-18,Yamunanagar,1.0,Moderate,105,PM10
2020-03-19,Yamunanagar,1.0,Moderate,146,PM2.5
2020-03-20,Yamunanagar,1.0,Moderate,163,PM2.5
2020-03-21,Yamunanagar,1.0,Moderate,176,PM2.5
2020-03-22,Yamunanagar,1.0,Satisfactory,91,PM10
2020-03-23,Yamunanagar,1.0,Satisfactory,83,PM2.5
2020-03-24,Yamunanagar,1.0,Moderate,102,PM10
2020-03-26,Yamunanagar,1.0,Satisfactory,54,PM2.5
2020-03-27,Yamunanagar,1.0,Satisfactory,59,PM10
2020-03-28,Yamunanagar,1.0,Good,32,O3
2020-03-29,Yamunanagar,1.0,Good,40,O3
2020-03-30,Yamunanagar,1.0,Satisfactory,52,PM10
2020-03-31,Yamunanagar,1.0,Satisfactory,60,PM10
2020-04-03,Yamunanagar,1.0,Satisfactory,58,PM10
2020-04-04,Yamunanagar,1.0,Satisfactory,57,PM10
2020-04-05,Yamunanagar,1.0,Satisfactory,69,PM10
2020-04-06,Yamunanagar,1.0,Satisfactory,80,PM10
2020-04-07,Yamunanagar,1.0,Satisfactory,68,PM10
2020-04-09,Yamunanagar,1.0,Satisfactory,76,PM10
2020-04-10,Yamunanagar,1.0,Satisfactory,80,PM10
2020-04-11,Yamunanagar,1.0,Satisfactory,87,PM10
2020-04-12,Yamunanagar,1.0,Satisfactory,74,PM10
2020-04-13,Yamunanagar,1.0,Satisfactory,87,PM10
2020-04-14,Yamunanagar,1.0,Satisfactory,96,PM10
2020-04-15,Yamunanagar,1.0,Moderate,107,PM10
2020-04-16,Yamunanagar,1.0,Moderate,119,PM10
2020-04-17,Yamunanagar,1.0,Moderate,111,PM10
2020-04-18,Yamunanagar,1.0,Satisfactory,67,PM10
2020-04-19,Yamunanagar,1.0,Satisfactory,56,O3
2020-04-20,Yamunanagar,1.0,Satisfactory,99,PM10
2020-04-21,Yamunanagar,1.0,Satisfactory,81,O3
2020-04-22,Yamunanagar,1.0,Satisfactory,69,PM10
2020-04-23,Yamunanagar,1.0,Moderate,130,PM10
2020-04-24,Yamunanagar,1.0,Moderate,132,PM10
2020-04-25,Yamunanagar,1.0,Moderate,127,PM10
2020-04-26,Yamunanagar,1.0,Satisfactory,68,O3
2020-04-27,Yamunanagar,1.0,Good,41,O3
2020-04-28,Yamunanagar,1.0,Good,37,PM10
2020-04-29,Yamunanagar,1.0,Satisfactory,84,PM10
2020-04-30,Yamunanagar,1.0,Moderate,103,PM10
2020-05-01,Yamunanagar,1.0,Satisfactory,99,PM10
2020-05-02,Yamunanagar,1.0,Moderate,104,PM10
2020-05-03,Yamunanagar,1.0,Satisfactory,100,PM10
2020-05-05,Yamunanagar,1.0,Satisfactory,75,PM10
2020-05-06,Yamunanagar,1.0,Satisfactory,95,PM10
2020-05-08,Yamunanagar,1.0,Moderate,103,PM10
2020-05-09,Yamunanagar,1.0,Moderate,129,PM10
2020-05-10,Yamunanagar,1.0,Moderate,116,PM10
2020-05-11,Yamunanagar,1.0,Satisfactory,65,PM10
2020-05-13,Yamunanagar,1.0,Moderate,110,PM10
2020-05-15,Yamunanagar,1.0,Moderate,126,PM10
2020-05-16,Yamunanagar,1.0,Moderate,115,PM10
2020-05-17,Yamunanagar,1.0,Moderate,119,PM10
2020-05-18,Yamunanagar,1.0,Moderate,155,PM2.5
2020-05-19,Yamunanagar,1.0,Moderate,114,PM10
2020-05-20,Yamunanagar,1.0,Moderate,108,PM10
2020-05-21,Yamunanagar,1.0,Moderate,144,PM2.5
2020-05-22,Yamunanagar,1.0,Moderate,159,PM2.5
2020-05-23,Yamunanagar,1.0,Moderate,155,PM2.5
2020-05-24,Yamunanagar,1.0,Moderate,127,PM10
2020-05-25,Yamunanagar,1.0,Moderate,147,PM10
2020-05-26,Yamunanagar,1.0,Moderate,137,PM10
2020-05-27,Yamunanagar,1.0,Moderate,118,PM10
2020-05-28,Yamunanagar,1.0,Moderate,101,PM10
2020-05-29,Yamunanagar,1.0,Satisfactory,81,PM10
2020-05-30,Yamunanagar,1.0,Satisfactory,91,PM10
2020-05-31,Yamunanagar,1.0,Satisfactory,71,PM10
2020-06-01,Yamunanagar,1.0,Good,48,O3
2020-06-02,Yamunanagar,1.0,Satisfactory,88,PM10
2020-06-03,Yamunanagar,1.0,Moderate,104,PM10
2020-06-04,Yamunanagar,1.0,Moderate,106,PM10
2020-06-05,Yamunanagar,1.0,Satisfactory,72,PM10
2020-06-06,Yamunanagar,1.0,Satisfactory,80,PM10
2020-06-07,Yamunanagar,1.0,Satisfactory,91,PM10
2020-06-09,Yamunanagar,1.0,Moderate,150,O3
2020-06-10,Yamunanagar,1.0,Moderate,134,PM10
2020-06-11,Yamunanagar,1.0,Moderate,128,PM10
2020-06-12,Yamunanagar,1.0,Moderate,121,PM10
2020-06-13,Yamunanagar,1.0,Moderate,119,PM10
2020-06-14,Yamunanagar,1.0,Moderate,122,PM10
2020-06-15,Yamunanagar,1.0,Moderate,108,PM10
2020-06-16,Yamunanagar,1.0,Satisfactory,94,PM10
2020-06-17,Yamunanagar,1.0,Satisfactory,96,PM10
2020-06-18,Yamunanagar,1.0,Satisfactory,97,PM10
2020-06-19,Yamunanagar,1.0,Moderate,113,O3
2020-06-20,Yamunanagar,1.0,Moderate,162,O3
2020-06-21,Yamunanagar,1.0,Moderate,170,O3
2020-06-22,Yamunanagar,1.0,Moderate,170,O3
2020-06-23,Yamunanagar,1.0,Moderate,109,PM10
2020-06-24,Yamunanagar,1.0,Satisfactory,75,O3
2020-06-25,Yamunanagar,1.0,Moderate,105,O3
2020-06-26,Yamunanagar,1.0,Satisfactory,98,O3
2020-06-28,Yamunanagar,1.0,Moderate,140,PM10
2020-06-29,Yamunanagar,1.0,Moderate,176,PM10
2020-06-30,Yamunanagar,1.0,Satisfactory,54,PM10
2020-07-01,Yamunanagar,1.0,Satisfactory,99,PM10
2020-07-02,Yamunanagar,1.0,Moderate,108,PM10
2020-07-03,Yamunanagar,1.0,Moderate,120,PM2.5
2020-07-05,Yamunanagar,1.0,Satisfactory,80,O3
2020-07-06,Yamunanagar,1.0,Satisfactory,86,PM10
2020-07-08,Yamunanagar,1.0,Good,40,PM10
2020-07-09,Yamunanagar,1.0,Satisfactory,74,PM10
2020-07-10,Yamunanagar,1.0,Satisfactory,73,PM10
2020-07-11,Yamunanagar,1.0,Satisfactory,64,PM10
2020-07-12,Yamunanagar,1.0,Satisfactory,70,PM10
2020-07-13,Yamunanagar,1.0,Satisfactory,65,PM10
2020-07-14,Yamunanagar,1.0,Satisfactory,86,PM10
2020-07-16,Yamunanagar,1.0,Satisfactory,86,PM10